Date String (YYYY-MM-DD hh:mm:ss) UTC,Instrument flags,absolute air pressure of the measurement (hPa),sample flow rate (lpm),inlet stack bypass flow (lpm),air temperature of the measurement (°C),ambient temperature measured by the external sensor (°C),aerosol sample conditioner tube jacket temperature (°C),OPC LED temperature (°C),internal box temperature (°C),relative humidity of the measurement (%),span deviation,mass concentration of particles derived from Lorenz-Mie calculation of OPC scattering (μg/m³),mass concentration of particles derived from Lorenz-Mie calculation of OPC scattering (μg/m³),mass concentration of particles derived from Lorenz-Mie calculation of OPC scattering (μg/m³)
DateTimeUTC,F1_M11,P_M11,Q1_M11,Q2_M11,T1_M11,T2_M11,T3_M11,T4_M11,T5_M11,U1_M11,ZSPAN_M11,X0_M11,X2_M11,X1_M11
2023-12-21 05:00:00,SystemResetWarning,0830.1,5.01,000.00,024.5,023.6,000.0,032.9,026.0,12.9,0000.0,0004.55,0002.33,0001.79
2023-12-21 05:01:00,SystemResetWarning,0830.1,5.01,000.00,024.5,023.6,000.0,032.9,026.0,13.0,0000.0,0004.99,0002.32,0001.79
2023-12-21 05:02:00,SystemResetWarning,0830.1,4.99,000.00,024.5,023.6,000.0,032.9,026.0,13.0,0000.0,0004.77,0002.26,0001.79
2023-12-21 05:03:00,SystemResetWarning,0830.1,5.00,000.00,024.6,023.7,000.0,032.9,026.0,13.0,0000.0,0004.67,0002.26,0001.83
2023-12-21 05:04:00,SystemResetWarning,0830.1,5.01,000.00,024.6,023.7,000.0,032.9,026.0,13.0,0000.0,0004.65,0002.29,0001.86
2023-12-21 05:05:00,SystemResetWarning,0830.1,5.01,000.00,024.6,023.7,000.0,032.9,026.0,13.1,0000.0,0004.89,0002.36,0001.87
2023-12-21 05:06:00,SystemResetWarning,0830.1,4.98,000.00,024.6,023.7,000.0,032.9,026.0,13.0,0000.0,0006.63,0002.43,0001.87
2023-12-21 05:07:00,SystemResetWarning,0830.1,5.00,000.00,024.6,023.7,000.0,032.9,026.0,13.0,0000.0,0007.01,0002.46,0001.87
2023-12-21 05:08:00,SystemResetWarning,0830.1,5.01,000.00,024.6,023.7,000.0,032.9,026.0,12.9,0000.0,0006.95,0002.44,0001.88
2023-12-21 05:09:00,SystemResetWarning,0830.0,5.01,000.00,024.6,023.8,000.0,032.9,026.0,12.9,0000.0,0006.80,0002.44,0001.89
2023-12-21 05:10:00,SystemResetWarning,0830.0,5.00,000.00,024.6,023.8,000.0,032.9,026.0,13.0,0000.0,0006.90,0002.46,0001.91
2023-12-21 05:11:00,SystemResetWarning,0830.1,4.99,000.00,024.6,023.8,000.0,032.9,026.0,13.0,0000.0,0007.13,0002.52,0001.93
2023-12-21 05:12:00,SystemResetWarning,0830.1,4.99,000.00,024.6,023.8,000.0,032.9,026.0,13.0,0000.0,0007.74,0002.58,0001.96
2023-12-21 05:13:00,SystemResetWarning,0830.1,5.00,000.00,024.6,023.8,000.0,032.9,026.0,13.0,0000.0,0007.89,0002.63,0001.98
2023-12-21 05:14:00,SystemResetWarning,0830.1,5.02,000.00,024.6,023.8,000.0,032.9,026.1,13.0,0000.0,0008.53,0002.71,0001.97
2023-12-21 05:15:00,SystemResetWarning,0830.1,5.00,000.00,024.6,023.8,000.0,032.9,026.1,13.0,0000.0,0008.57,0002.71,0001.94
2023-12-21 05:16:00,SystemResetWarning,0830.1,4.99,000.00,024.6,023.8,000.0,032.9,026.1,13.0,0000.0,0008.51,0002.65,0001.92
2023-12-21 05:17:00,SystemResetWarning,0830.1,4.99,000.00,024.6,023.8,000.0,032.9,026.1,13.0,0000.0,0007.82,0002.59,0001.91
2023-12-21 05:18:00,SystemResetWarning,0830.1,5.00,000.00,024.6,023.8,000.0,032.9,026.1,13.0,0000.0,0007.52,0002.56,0001.92
2023-12-21 05:19:00,SystemResetWarning,0830.1,5.01,000.00,024.7,023.8,000.0,032.9,026.1,13.0,0000.0,0007.76,0002.58,0001.92
2023-12-21 05:20:00,SystemResetWarning,0830.1,5.00,000.00,024.7,023.8,000.0,032.9,026.1,13.0,0000.0,0007.68,0002.57,0001.92
2023-12-21 05:21:00,SystemResetWarning,0830.1,5.00,000.00,024.7,023.9,000.0,032.9,026.1,13.0,0000.0,0007.58,0002.56,0001.92
2023-12-21 05:22:00,SystemResetWarning,0830.1,5.00,000.00,024.7,023.9,000.0,032.9,026.1,13.0,0000.0,0007.43,0002.52,0001.91
2023-12-21 05:23:00,SystemResetWarning,0830.1,4.99,000.00,024.7,023.9,000.0,033.0,026.1,13.0,0000.0,0007.10,0002.54,0001.91
2023-12-21 05:24:00,SystemResetWarning,0830.1,5.01,000.00,024.7,023.9,000.0,033.0,026.1,12.9,0000.0,0007.51,0002.53,0001.90
2023-12-21 05:25:00,SystemResetWarning,0830.1,5.02,000.00,024.7,023.9,000.0,033.0,026.1,12.9,0000.0,0006.88,0002.47,0001.88
2023-12-21 05:26:00,SystemResetWarning,0830.1,4.99,000.00,024.7,023.9,000.0,033.0,026.1,12.9,0000.0,0006.60,0002.42,0001.88
2023-12-21 05:27:00,SystemResetWarning,0830.1,4.99,000.00,024.7,023.9,000.0,033.0,026.2,12.9,0000.0,0006.52,0002.41,0001.88
2023-12-21 05:28:00,SystemResetWarning,0830.1,5.01,000.00,024.7,023.9,000.0,033.0,026.1,13.0,0000.0,0006.73,0002.47,0001.87
2023-12-21 05:29:00,SystemResetWarning,0830.1,5.01,000.00,024.7,023.9,000.0,033.0,026.1,13.0,0000.0,0006.60,0002.49,0001.89
2023-12-21 05:30:00,SystemResetWarning,0830.1,5.00,000.00,024.7,023.9,000.0,033.0,026.2,12.9,0000.0,0005.78,0002.51,0001.89
2023-12-21 05:31:00,SystemResetWarning,0830.1,4.99,000.00,024.7,023.9,000.0,033.0,026.1,12.9,0000.0,0005.77,0002.52,0001.90
2023-12-21 05:32:00,SystemResetWarning,0830.2,5.00,000.00,024.7,023.9,000.0,033.0,026.2,12.9,0000.0,0005.76,0002.54,0001.91
2023-12-21 05:33:00,SystemResetWarning,0830.2,5.01,000.00,024.7,023.9,000.0,033.0,026.2,12.9,0000.0,0005.82,0002.57,0001.92
2023-12-21 05:34:00,SystemResetWarning,0830.2,5.01,000.00,024.7,023.9,000.0,033.0,026.2,12.9,0000.0,0005.57,0002.58,0001.91
2023-12-21 05:35:00,SystemResetWarning,0830.2,5.00,000.00,024.7,024.0,000.0,033.0,026.1,12.9,0000.0,0004.44,0002.60,0001.91
2023-12-21 05:36:00,SystemResetWarning,0830.2,4.99,000.00,024.7,024.0,000.0,033.0,026.1,12.9,0000.0,0005.24,0002.65,0001.94
2023-12-21 05:37:00,SystemResetWarning,0830.2,5.00,000.00,024.7,024.0,000.0,033.0,026.2,12.9,0000.0,0006.48,0002.67,0001.94
2023-12-21 05:38:00,SystemResetWarning,0830.3,5.00,000.00,024.7,024.0,000.0,033.0,026.2,12.9,0000.0,0007.30,0002.68,0001.95
2023-12-21 05:39:00,SystemResetWarning,0830.2,5.00,000.00,024.7,024.0,000.0,033.0,026.2,12.9,0000.0,0007.18,0002.63,0001.95
2023-12-21 05:40:00,SystemResetWarning,0830.2,5.00,000.00,024.8,023.9,000.0,033.0,026.2,12.9,0000.0,0006.94,0002.57,0001.92
2023-12-21 05:41:00,SystemResetWarning,0830.2,5.01,000.00,024.8,023.9,000.0,033.0,026.2,12.9,0000.0,0006.93,0002.54,0001.90
2023-12-21 05:42:00,SystemResetWarning,0830.2,5.00,000.00,024.8,024.0,000.0,033.0,026.2,12.8,0000.0,0007.21,0002.51,0001.89
2023-12-21 05:43:00,SystemResetWarning,0830.2,5.00,000.00,024.8,024.0,000.0,033.0,026.2,12.8,0000.0,0007.32,0002.52,0001.88
2023-12-21 05:44:00,SystemResetWarning,0830.2,5.00,000.00,024.8,024.0,000.0,033.0,026.2,12.8,0000.0,0007.42,0002.48,0001.87
2023-12-21 05:45:00,SystemResetWarning,0830.2,5.00,000.00,024.8,024.0,000.0,033.0,026.2,12.8,0000.0,0007.59,0002.45,0001.86
2023-12-21 05:46:00,SystemResetWarning,0830.2,4.99,000.00,024.8,023.9,000.0,033.0,026.2,12.8,0000.0,0007.89,0002.36,0001.85
2023-12-21 05:47:00,SystemResetWarning,0830.2,5.00,000.00,024.8,023.9,000.0,033.0,026.2,12.8,0000.0,0008.45,0002.36,0001.84
2023-12-21 05:48:00,SystemResetWarning,0830.2,5.00,000.00,024.8,023.9,000.0,033.0,026.2,12.8,0000.0,0007.74,0002.40,0001.83
2023-12-21 05:49:00,SystemResetWarning,0830.2,5.01,000.00,024.8,023.9,000.0,033.0,026.2,12.9,0000.0,0007.25,0002.40,0001.83
2023-12-21 05:50:00,SystemResetWarning,0830.2,5.01,000.00,024.7,023.9,000.0,033.0,026.2,12.9,0000.0,0007.12,0002.43,0001.84
2023-12-21 05:51:00,SystemResetWarning,0830.2,5.01,000.00,024.7,023.9,000.0,033.0,026.1,12.9,0000.0,0007.29,0002.49,0001.86
2023-12-21 05:52:00,SystemResetWarning,0830.2,4.98,000.00,024.7,023.9,000.0,033.1,026.1,12.9,0000.0,0007.45,0002.57,0001.87
2023-12-21 05:53:00,SystemResetWarning,0830.1,4.99,000.00,024.7,023.9,000.0,033.1,026.1,12.8,0000.0,0007.46,0002.60,0001.88
2023-12-21 05:54:00,SystemResetWarning,0830.1,5.01,000.00,024.7,023.9,000.0,033.1,026.1,12.9,0000.0,0007.43,0002.62,0001.89
2023-12-21 05:55:00,SystemResetWarning,0830.1,5.01,000.00,024.7,023.9,000.0,033.0,026.0,12.9,0000.0,0007.49,0002.64,0001.88
2023-12-21 05:56:00,SystemResetWarning,0830.1,5.00,000.00,024.7,023.8,000.0,033.0,026.0,12.9,0000.0,0008.07,0002.69,0001.90
2023-12-21 05:57:00,SystemResetWarning,0830.1,4.99,000.00,024.6,023.8,000.0,033.0,026.0,12.9,0000.0,0008.26,0002.72,0001.91
2023-12-21 05:58:00,SystemResetWarning,0830.1,5.00,000.00,024.6,023.8,000.0,033.0,025.9,12.9,0000.0,0007.80,0002.72,0001.91
2023-12-21 05:59:00,SystemResetWarning,0830.1,5.01,000.00,024.6,023.8,000.0,033.0,025.9,13.0,0000.0,0007.85,0002.67,0001.91
